Skip Page Navigation
NASA JPL Caltech
NASA Logo - Jet Propulsion Laboratory + View the NASA Portal
+ Near-Earth Object (NEO) Program
Search JPL
JPL Home Earth Solar System Stars & Galaxies Technology
JPL Solar System Dynamics
BODIES ORBITS EPHEMERIDES TOOLS PHYSICAL DATA DISCOVERY FAQ SITE MAP
JPL Small-Body Database Browser
Search: [ help ]  
85236 (1993 KH)
Classification: Apollo [NEO, PHA]          SPK-ID: 2085236
Ephemeris | Orbit Diagram | Orbital Elements | Physical Parameters | Discovery Circumstances | Close-Approach Data ]

[ hide orbit diagram ]
Orbit Diagram
Note: Make sure you have Java enabled on your browser to see the applet. This applet is provided as a 3D orbit visualization tool. The applet was implemented using 2-body methods, and hence should not be used for determining accurate long-term trajectories (over several years or decades) or planetary encounter circumstances. For accurate long-term ephemerides, please instead use our Horizons system.
Orbit Viewer

Additional Notes: the orbits shown in the applet are color coded. The planets are white lines, and the asteroid/comet is a blue line. The bright white line indicates the portion of the orbit that is above the ecliptic plane, and the darker portion is below the ecliptic plane. Likewise for the asteroid/comet orbit, the light blue indicates the portion above the ecliptic plane, and the dark blue the portion below the ecliptic plane.

Orbit Viewer applet originally written and kindly provided by Osamu Ajiki (AstroArts), and further modified by Ron Baalke (JPL).


Orbital Elements at Epoch 2456400.5 (2013-Apr-18.0) TDB
Reference: JPL 49 (heliocentric ecliptic J2000)
 Element Value Uncertainty (1-sigma)   Units 
e .3111731580666685 5.8502e-08  
a 1.234187793934276 4.7505e-09 AU
q .8501416804484129 7.0054e-08 AU
i 12.80456681469342 1.0977e-05 deg
node 54.42988464484294 1.3975e-05 deg
peri 293.7967010395357 1.5884e-05 deg
M 112.454251720499 8.5819e-06 deg
tp 2456244.061487930924
(2012-Nov-12.56148793)
1.132e-05 JED
period 500.8068924316291
1.37
2.8915e-06
7.916e-09
d
yr
n .7188399469744673 4.1504e-09 deg/d
Q 1.61823390742014 6.2288e-09 AU
  Orbit Determination Parameters
   # obs. used (total)      230  
   data-arc span      6934 days (18.98 yr)  
   first obs. used      1993-05-24  
   last obs. used      2012-05-18  
   planetary ephem.      DE405  
   SB-pert. ephem.      SB405-CPV-2  
   condition code      0  
   fit RMS      .69873  
   data source      ORB  
   producer      Otto Matic  
   solution date      2013-Apr-29 15:38:27  

Additional Information
 Earth MOID = .000809578 AU 
 T_jup = 5.119 
[ show covariance matrix ]

Ephemeris | Orbit Diagram | Orbital Elements | Physical Parameters | Discovery Circumstances | Close-Approach Data ]

Physical Parameter Table
Parameter Symbol Value Units Sigma Reference Notes
absolute magnitude H 18.512 mag .56113 49 autocmod 2.5c

85236 (1993 KH)          Discovered 1993-May-24 by McNaught, R. H. at Siding Spring (413)
Reference: 20040830/Numbers.arcLast Updated: 2004-09-06

[ show close-approach data ]
Ephemeris | Orbit Diagram | Orbital Elements | Physical Parameters | Discovery Circumstances | Close-Approach Data ]
ABOUT SSD CREDITS/AWARDS PRIVACY/COPYRIGHT GLOSSARY LINKS
FirstGov 2013-May-23 09:10 UT
(server date/time)  
NASA Home Page
Site Manager:   Donald K. Yeomans
Webmaster  Alan B. Chamberlin